COSMOS 1275 DEB

Satellite information

Favourite Embed

Satellite Type and Status

DEBRISIN ORBIT

Key statistics

Satellite COSMOS 1275 DEB at a glance.

Uptime

16214

Days in orbit

Revolutions

≈ 13.8

Per day

Orbit

LEO

Low Earth Orbit

Inclination

83.0

Latest

Satellite identification and parameters

Extended collection of information and parameters for COSMOS 1275 DEB.

Object identification

Identified? True

Debris? True

Object name: COSMOS 1275 DEB

International designator: 1981-053PB

Object number (NORAD): 39965

Object ID (CCSDS): 39965

Country: COMMONWEALTH OF INDEPENDENT STATES (CIS)

Current information (Y/N): Y

RCS size: SMALL

Orbital parameters

Period: 104.041 minutes

Inclination: 82.9655 deg

SMA: 7327.617 km

Apoapsis: 980.682 km

Periapsis: 918.282 km

RAAN: 70.1133 deg

Eccentricy: 0.0042579

Argument of periapsis: 292.7103 deg

Mean anomaly: 86.6361 deg

Mean motion: 13.84071866 rev/day

Mean motion (dot): 0.0000104 rev/day2

B* drag term: 0.00091534 1/REarth

Two-line elements (TLE)

Creation date: Oct. 23, 2025, 10:06 p.m.

Reference frame: TEME

Reference center: EARTH

Epoch: Oct. 23, 2025, 3:45 p.m. UTC

TLE line 0: 0 COSMOS 1275 DEB

TLE line 1: 1 39965U 81053PB 25296.65627566 .00001040 00000-0 91534-3 0 9996

TLE line 2: 2 39965 82.9655 70.1133 0042579 292.7103 86.6361 13.84071866573891

Live tracking on map

Real-time ground track for satellite COSMOS 1275 DEB.

In-orbit conjunctions

A list of the most updated potential collisions computed for object COSMOS 1275 DEB.

Target Orbit TCA Probability of collision Miss distance Type
COSMOS 2251 DEB LEO 2025-09-28 21:57:47 0.0001034804 116.0 (m) DEBRIS
DELTA 1 DEB SSO 2025-01-07 06:32:24 0.000222472 65.0 (m) DEBRIS

Associated space launch

Navigation satellite providing location information for the Tsiklon-B navigation system

COSMOS 1275 DEB was lifted into orbit during the mission ‘Kosmos-3M | Parus 27’, on board a Kosmos-3M space rocket.

The launch took place on June 4, 1981, 3:41 p.m. from 132/2.

For more information about the launch, click the button.

Launch to space Kosmos-3M | Parus 27
Kosmos-3M | Parus 27

Agency: N/A

Status: Launch Successful

Launch date: June 4, 1981, 3:41 p.m. UTC

Rocket: Kosmos-3M

Launch pad: 132/2

Location: Plesetsk Cosmodrome, Russian Federation

...

Latest news about this satellite

There are no fresh news available about this satellite. Check back as we update our databases every day.


Newsletter sign-up

Weekly statistics, charts and insights to help you stay on top of the space industry.